STARLINK-5855, 55917

Orbit data source: Space-Track

STARLINK-5855, 55917 is a payload satellite owned by SpaceX/Seattle (US) in LEO that was launched on Fri, 17 Mar 2023 UTC via an FALCON 9 launch vehicle from the Air Force Western Test Range (AFWTR). Payload-class satellites include a variety of spacecraft equipped with specific instruments for various scientific and technological missions. These include communications satellites like Starlink; space stations such as the ISS; scientific satellites like the Hubble; Earth observation satellites from companies like Planet Labs, Umbra, and HawkEye 360; GPS; miniature CubeSats for education and research; and military/defense satellites.

Not visible in the next 10 days
Identifier
55917, 2023-037D
Orbit
LEO
Country
Flag of USUS
Related business
Manufacturer
SpaceX/Seattle
Mission
Partially operational Commercial Communications
Bus & Motor
STARLINK, Unknown motor
Mass
305 kg wet, ~290 kg dry
Launch date (UTC)
2023-03-17 (3 years ago)
Launch vehicle
FALCON 9
Launch site
Air Force Western Test Range (AFWTR)
Object type
Payload
Rocket body
Debris
Shape & HBR
Box + 1 Pan, 10.1 m
Radar Cross Section
11.087 m², Large (>1 m²)

Expand to show TLE details & history
Last TLE update: 3 weeks ago

TLE from 3 weeks ago
0 STARLINK-5855
1 55917U 23037D   25327.48271138  .12739593  45535-5  20863-3 0  9993
2 55917  69.9395 111.9802 0005630 238.3734 121.6952 16.47972329150042
Epoch: 2025-11-23T11:35Z
TLE epoch observation values (Epoch: 2025-11-23T11:35:06.263Z)
Latitude
0.00002°
Longitude
-124.49228°
Altitude
149.19 km
Speed
7.816 km/s
True Right ascension
07h 27m 55s
True Declination
0° 00' 00"
Sunlit
Object was in full shadow at epoch
Visualization orbit readout
Latitude
Unknown
Longitude
Unknown
Altitude
Unknown
Speed
Unknown
Apparent Right ascension
Unknown
Apparent Declination
Unknown
Sunlit
N/A
Visualization observer readout
Local Sidereal Time
03:07:57
Azimuth
Unknown
Elevation
Unknown
Doppler factor
Unknown
Orbital elements
Apogee altitude
146.172 km
Perigee altitude
138.83 km
Semi-major axis
6,520.638 km
Eccentricity
0.00056
Inclination
69.9395°
RAAN
111.9802°
Arg. of periapsis
238.3734°
True anomaly
121.75007°
Mean anomaly
121.6952°
Eccentric anomaly
121.72264°
Mean motion
4.122 °/min
Orbital period
87.34 mins
BSTAR
0.00020863
Loading maneuver chart data...
Computing Atmospheric mass density...
Loading historical data...
Loading historical data...
Loading historical data...
Loading historical data...
Loading historical data...
Loading historical data...
Loading historical data...

Documentation

Showing up to 5 results
|